Regional Weather Roundup
Issued by NWS Midland/Odessa, TX

Current Version | Previous Version | Text Only | Print | Product List | Glossary On
Versions: 1 2 3 4 5 6 7 8 9 10 11 12 13 14 15 16 17 18 19 20 21 22 23 24 25 26 27 28 29 30 31 32 33 34 35 36 37 38 39 40 41 42 43 44 45 46 47 48 49 50
000
ASUS44 KMAF 050510
RWRMAF
MIDLAND AREA WEATHER ROUNDUP
NATIONAL WEATHER SERVICE MIDLAND TX
1200 AM CDT WED AUG 05 2020

...IN SOUTHWEST TEXAS AND SOUTHEAST NEW MEXICO...

CITY           SKY/WX    TMP DP  RH WIND       PRES   REMARKS
ALPINE         CLEAR     81  43  26 S7        30.19R
ANDREWS        FAIR      85  47  27 S10       30.02S
ARTESIA        PTCLDY    88  50  27 S10       30.00
BIG SPRING     CLEAR     84  52  33 S12       29.98F
CARLSBAD       CLEAR     82  48  30 S6        29.97S
DRYDEN         NOT AVBL
FORT STOCKTON  CLEAR     85  54  34 SE18G28   30.01S
GUAD PASS      CLEAR     83  46  27 W5        30.19S
HOBBS          CLEAR     82  48  30 S12       30.03S
LAMESA         NOT AVBL
MARFA          CLEAR     70  50  49 NE8       30.17F
MIDLAND AIRPK  CLEAR     87  51  28 S17       30.00F
MIDLAND INTL   CLEAR     87  50  27 S17       30.00S
ODESSA         CLEAR     87  49  26 S20G25    30.01F
PECOS          CLEAR     89  45  21 SE8       29.97S
PRESIDIO       FAIR      89  50  26 N6        30.00S
SEMINOLE       CLEAR     84  49  28 S9        30.06S
SNYDER         CLEAR     83  53  35 S8        29.98S
WINK           CLEAR     89  48  24 SE15      29.97S
$$
...OTHER STATIONS IN TEXAS...

CITY           SKY/WX    TMP DP  RH WIND       PRES   REMARKS
ABILENE        CLEAR     83  60  45 SE12      29.97S
AMARILLO       CLOUDY    76  61  59 SE24G36   30.02S
AUSTIN         CLEAR     81  69  67 S8        29.97S
BROWNSVILLE    CLEAR     81  76  84 SE6       29.99R
CORPUS CHRISTI PTCLDY    76  74  93 S6        29.99R
DALLAS FTW     MOCLDY    83  62  49 E10       29.97S
DEL RIO        CLEAR     90  61  37 SE9       29.95R
EL PASO        MOCLDY    90  49  24 SW18G25   30.05S
HOUSTON INT    PTCLDY    78  74  87 CALM      29.97S
LUBBOCK        PTCLDY    76  57  51 SE9       30.01S
SAN ANGELO     CLEAR     86  58  38 S13       29.97F
SAN ANTONIO    PTCLDY    85  64  49 S13G21    30.00S
WACO           CLEAR     84  67  56 E9        29.96F
WICHITA FALLS  PTCLDY    69  51  52 SE10      30.07F
$$
...OTHER LOCATIONS IN NEW MEXICO...

CITY           SKY/WX    TMP DP  RH WIND       PRES   REMARKS
ALAMOGORDO     MOCLDY    84  48  28 SW7       30.06
ALBUQUERQUE    MOCLDY    83  44  25 S8        30.12R
CANNON AFB     MOCLDY    79  51  37 S9        30.06R
CLOVIS         MOCLDY    75  52  44 S8        30.05S
HOLLOMAN AFB   NOT AVBL
ROSWELL        PTCLDY    86  48  26 S10       29.98S
RUIDOSO        CLEAR     68  48  49 W10       30.30
SANTA FE       PTCLDY    76  33  21 CALM      30.18R
TRUTH OR CONSE PTCLDY    81  49  32 NW6       30.10R
TUCUMCARI      PTCLDY    82  55  39 S7        29.96F
$$



USA.gov is the U.S. government's official web portal to all federal, state and local government web resources and services.